RH
35 31 39 48 39 35 30 31 31 27 36 40 40 37 32 36 36 37 38 38 36 32 28 30 31 35 45 49 52 55 58 62 69 71 71 75 72 75 78 78 71 69 68 66
30 40 32 26 28 28 30 33 31 27 35 37 36 30 27 38 35 31 31 34 33 33 33 32 33 40 47 44 50 56 58 61 65 69 68 68 73 76 75 76 73 70 70 70
35 32 25 26 28 27 30 37 30 26 27 35 36 27 24 39 39 33 32 32 31 30 29 31 35 37 50 49 48 50 53 59 65 67 71 76 80 83 84 82 80 75 71 72
33 27 27 29 30 27 32 29 29 27 36 27 32 25 21 36 34 37 36 35 29 31 28 28 29 38 44 44 46 47 52 57 61 68 72 72 75 78 81 79 81 77 74 74
26 30 30 31 29 26 28 31 34 41 48 53 38 34 22 33 24 34 33 36 32 28 28 27 28 28 33 39 50 46 53 60 63 70 71 73 76 80 80 85 83 82 80 79
32 26 26 28 26 26 29 35 48 64 52 44 40 43 34 30 38 32 48 33 33 33 33 28 28 31 34 43 51 54 55 55 64 70 72 73 74 78 85 87 89 88 88 87
42 33 26 24 28 33 31 33 32 24 47 38 48 43 35 35 27 27 24 26 28 36 34 33 33 36 37 48 51 52 54 54 63 68 70 72 73 76 79 82 88 89 90 90
36 27 30 25 28 37 42 30 33 21 29 34 41 36 22 26 26 27 25 27 30 32 37 37 36 34 35 40 47 49 51 51 61 64 66 71 74 75 77 81 88 89 89 87
35 37 27 22 23 27 39 34 39 36 64 56 42 32 24 30 29 28 24 26 25 26 34 37 38 38 36 39 44 47 49 50 56 60 63 72 72 78 77 83 87 88 89 81
30 40 32 28 25 28 43 31 32 42 35 30 36 34 29 40 21 24 26 26 26 27 28 35 40 37 36 36 40 45 45 48 52 59 61 62 69 72 76 84 85 88 87 86
30 35 46 34 30 29 30 31 40 43 57 45 41 30 28 27 27 37 24 22 24 26 27 29 33 41 39 39 42 47 48 50 55 62 63 64 72 74 78 79 81 81 84 83
30 33 36 31 35 31 30 28 34 58 34 65 79 51 28 25 26 26 24 24 27 30 31 34 35 38 43 44 43 46 48 50 50 56 62 68 70 77 78 77 79 82 80 81
30 34 36 37 49 40 33 32 39 58 68 59 66 36 27 37 30 24 23 22 26 31 34 36 38 38 41 46 47 48 48 51 50 56 63 70 74 77 75 75 76 78 78 78
37 36 31 38 35 39 38 37 43 40 73 56 52 22 22 23 27 28 28 28 31 30 35 33 40 40 42 43 46 49 51 50 53 59 62 66 69 70 70 71 75 74 74 75
30 34 36 33 34 38 35 32 40 49 32 34 22 38 24 26 29 28 28 29 29 32 29 32 35 39 40 45 48 50 51 55 54 58 60 61 63 67 70 75 74 73 75 70
42 38 43 36 36 39 41 31 36 34 30 35 26 27 19 21 25 29 29 29 31 33 29 35 33 33 34 39 46 49 54 58 60 59 57 56 63 68 71 71 73 75 74 75
41 46 54 52 48 51 51 38 35 45 39 32 36 26 21 26 31 30 30 31 32 33 33 36 34 33 36 40 40 51 55 60 62 59 56 57 62 66 69 70 73 73 74 74
46 46 67 69 63 66 34 39 35 37 31 32 36 30 28 30 32 33 32 31 32 31 37 36 36 38 38 44 46 47 56 61 65 63 58 58 61 61 65 72 72 70 74 74
45 60 74 70 69 50 35 32 41 41 36 36 36 32 34 43 42 36 35 37 32 35 40 39 40 40 40 42 44 47 55 62 67 66 63 60 61 62 64 69 69 69 75 78
58 57 68 87 76 65 43 40 39 36 38 32 41 38 43 41 42 40 38 36 33 44 44 42 40 38 42 40 45 46 50 60 63 62 62 62 64 62 65 64 66 68 71 67
74 79 69 61 77 67 45 35 37 41 36 36 37 37 44 41 38 32 37 37 46 45 44 44 44 44 45 43 45 44 47 52 52 59 63 65 66 65 62 66 70 70 72 69
64 76 86 80 83 61 44 34 35 38 54 36 36 35 42 41 38 39 42 44 46 47 48 48 50 53 52 47 46 46 48 46 52 58 61 66 69 61 58 73 78 73 71 75
53 48 67 62 56 42 46 39 32 42 36 36 35 32 36 39 40 41 43 44 45 49 50 53 58 59 58 60 51 51 51 49 51 56 61 63 66 67 65 76 77 83 80 74
58 51 56 47 45 45 45 37 42 39 38 37 35 34 39 35 38 40 45 46 46 48 50 54 59 63 65 66 62 56 55 56 56 57 60 64 68 72 73 67 71 76 79 78
48 50 50 55 48 42 39 44 36 36 44 40 39 38 36 41 40 43 45 47 49 49 51 58 64 71 71 71 68 68 66 66 63 62 62 64 67 68 78 70 72 68 67 67
54 47 44 37 38 29 27 29 36 43 43 40 40 42 41 44 40 44 47 48 51 54 58 71 74 72 67 64 65 68 70 72 72 69 67 70 73 78 74 79 76 70 66 67
Wind_Speed
3 6 0 3 4 3 2 2 4 5 0 3 8 14 15 10 9 10 10 11 12 15 9 7 8 8 7 6 7 8 8 8 4 2 2 1 3 3 3 4 5 5 4 2
7 1 1 1 1 0 1 3 6 5 1 4 7 19 15 9 10 15 16 13 15 9 7 8 8 8 9 9 10 9 9 8 7 3 3 3 3 2 2 3 4 5 5 5
4 1 1 2 3 3 2 2 2 4 6 2 8 8 5 1 3 6 9 9 9 14 13 10 10 12 9 11 13 12 12 10 7 7 3 2 2 1 0 3 3 4 6 6
1 2 1 2 1 3 3 0 2 4 6 4 6 8 6 4 6 7 10 11 14 13 10 9 11 9 13 16 10 11 10 11 9 8 5 6 5 5 4 3 3 4 5 5
3 1 1 1 1 1 4 1 1 1 2 4 5 3 10 4 5 5 9 12 14 13 13 14 13 15 16 11 12 12 10 9 8 8 8 6 6 4 2 2 3 4 4 5
0 1 1 1 2 1 2 1 5 4 3 3 4 3 9 2 2 5 3 4 9 11 12 12 10 9 9 9 10 10 11 12 10 10 10 10 9 7 4 4 4 4 3 4
2 1 1 1 1 2 5 6 5 6 6 5 2 2 13 6 6 5 7 9 7 8 9 11 11 10 11 13 14 13 13 14 11 12 11 11 10 8 9 7 5 5 4 3
3 4 3 1 1 3 2 5 6 3 2 6 2 7 8 5 5 6 6 8 7 6 6 9 10 11 13 14 14 15 15 16 13 13 13 10 9 7 7 7 5 5 5 5
5 3 1 3 1 2 1 1 3 6 2 2 4 9 11 4 4 3 8 6 8 7 6 10 9 11 13 13 16 18 16 16 14 15 12 10 9 9 9 8 6 5 5 5
4 1 2 1 2 4 1 4 3 4 1 5 6 7 8 4 4 4 3 5 8 7 7 8 8 11 11 13 13 14 15 18 16 14 12 11 11 10 8 6 8 8 6 6
5 3 1 0 6 8 2 0 5 3 4 4 4 9 9 8 3 3 5 6 7 8 8 8 7 7 8 8 10 13 15 15 13 13 12 12 10 10 8 9 8 8 6 7
5 5 4 6 1 2 3 5 6 7 5 1 4 12 5 9 7 4 8 8 7 7 9 8 8 7 8 9 10 13 13 15 15 13 12 12 9 9 9 10 9 8 9 6
7 1 2 5 2 2 5 6 5 6 4 8 6 10 1 4 6 7 8 9 9 8 8 8 8 7 8 8 9 11 12 14 12 11 12 11 11 10 11 10 9 8 8 8
5 4 8 9 5 5 4 6 6 6 5 6 11 19 8 11 9 9 9 9 10 9 8 7 8 7 7 7 8 10 11 12 11 11 12 12 13 13 12 11 10 9 9 8
3 6 5 5 4 4 4 6 9 11 10 11 17 16 14 13 9 8 8 8 9 10 8 7 7 8 7 6 6 7 8 10 11 12 12 14 12 11 10 10 10 9 8 9
2 3 2 6 4 9 7 21 15 16 13 13 18 24 28 13 7 8 10 9 10 10 8 7 7 8 8 7 7 7 8 8 8 10 13 11 9 10 11 11 10 10 10 9
6 5 3 7 4 2 8 22 17 8 9 11 14 24 20 14 10 10 10 8 11 9 7 7 8 7 7 7 6 7 7 6 10 11 11 11 11 11 11 10 10 11 11 9
8 6 3 4 2 6 9 1 6 13 18 13 13 18 18 15 11 8 10 8 9 7 7 7 5 6 6 4 4 4 5 7 7 8 9 8 10 11 10 10 12 11 8 11
3 6 1 3 5 8 9 8 8 9 12 8 18 19 12 2 4 11 11 9 8 7 6 6 5 4 4 5 4 3 4 5 6 8 9 9 9 10 10 11 12 10 8 7
6 4 5 4 4 8 8 3 3 5 11 10 7 10 4 4 2 7 2 5 8 7 4 4 3 3 4 3 0 3 4 6 8 8 9 7 8 10 10 12 11 8 7 10
4 1 11 8 8 10 10 4 3 4 10 3 6 6 7 7 8 4 4 5 5 5 6 3 3 3 4 3 2 2 3 7 8 7 7 7 8 10 10 8 6 8 9 7
11 10 6 3 4 14 8 5 9 9 3 4 4 5 8 8 5 6 7 7 8 8 6 5 3 4 4 3 3 4 5 6 5 5 6 7 8 8 7 8 6 6 7 8
5 11 10 14 13 3 8 7 10 1 4 5 4 7 9 7 9 8 8 9 9 8 7 3 4 5 5 4 4 6 6 3 4 5 7 7 7 8 8 7 7 5 7 7
5 4 4 1 7 12 8 12 5 6 10 7 7 6 6 9 9 10 8 8 7 6 7 5 5 6 7 4 4 6 6 6 6 7 7 6 6 7 6 6 6 7 6 7
7 9 8 7 6 10 11 10 13 13 9 8 10 8 11 9 11 10 8 8 7 7 6 5 6 6 8 4 6 2 5 5 7 7 6 6 6 7 6 8 9 10 10 11
8 10 9 15 8 13 12 9 8 11 11 15 12 9 12 10 14 8 9 7 7 8 5 5 5 4 6 7 7 6 5 4 5 7 5 5 5 5 6 6 6 18 19 20
Wind_Direction
13 64 114 232 183 165 197 240 281 264 225 235 231 260 263 204 208 222 224 226 230 229 231 221 217 206 194 193 191 198 190 206 162 160 160 211 212 201 216 217 220 218 223 232
21 68 239 209 136 34 328 316 305 288 135 197 296 277 260 196 216 210 213 221 228 232 224 227 212 193 193 194 200 196 205 193 196 175 187 172 168 198 181 199 221 220 217 223
143 290 340 76 45 38 303 246 311 256 316 228 311 299 331 115 221 208 225 225 224 223 225 224 213 206 191 197 200 202 204 199 200 194 132 91 56 42 341 239 235 226 218 227
206 321 113 91 71 122 308 206 307 317 27 296 12 284 312 332 293 225 232 220 228 219 221 218 212 209 204 213 201 202 199 202 203 183 180 182 183 194 216 205 213 226 218 228
265 40 29 351 204 175 228 48 42 26 60 16 353 48 272 348 323 290 240 228 230 225 215 221 212 211 211 202 198 204 199 203 205 188 194 191 202 203 189 227 232 242 242 235
249 357 68 147 88 30 86 97 43 57 78 27 287 115 289 273 248 300 308 282 235 217 216 222 214 200 209 196 194 193 197 211 203 197 200 199 202 197 192 216 225 233 240 245
352 307 335 93 110 28 61 47 337 353 12 224 337 46 244 266 259 238 288 294 293 240 215 214 208 204 204 192 196 196 198 213 205 204 205 205 209 196 203 204 203 207 227 230
154 320 167 16 153 162 89 131 147 268 281 282 316 242 250 226 286 266 260 264 287 281 235 229 221 210 207 205 200 201 201 211 199 203 213 206 200 204 210 207 201 214 212 219
143 278 58 43 46 60 166 90 166 107 17 17 263 288 304 298 351 281 273 295 298 289 243 233 219 209 207 201 201 200 201 211 204 204 205 205 204 200 207 205 202 212 215 226
199 49 2 52 76 31 91 158 43 12 279 283 284 275 242 306 340 3 12 299 297 295 289 270 241 224 217 213 202 199 205 206 205 203 201 205 205 205 207 190 206 208 218 217
143 117 243 60 193 180 114 219 54 116 136 201 301 267 214 217 222 242 250 251 266 291 291 286 271 244 223 208 201 201 200 202 201 196 199 203 200 202 197 203 208 212 208 208
191 137 204 215 44 158 175 184 152 123 220 164 154 269 240 226 248 271 272 269 270 275 281 293 288 261 221 212 204 207 206 201 205 199 193 202 200 191 198 209 209 196 214 214
185 194 355 325 15 345 218 194 146 116 102 198 143 257 316 258 270 258 264 282 282 293 302 300 297 273 248 222 204 203 202 212 204 191 192 194 197 194 206 210 205 200 205 213
122 164 178 203 201 132 217 199 186 156 145 187 224 269 274 284 265 286 278 262 273 279 277 287 302 292 276 238 210 205 204 201 193 193 197 202 202 202 204 203 199 201 202 207
154 225 195 254 203 188 243 198 186 204 215 197 260 244 257 251 248 242 253 275 282 276 285 295 307 308 303 276 229 214 216 198 191 191 200 213 208 202 198 195 197 200 197 210
20 268 152 282 231 204 224 263 215 220 242 254 266 272 271 271 264 259 255 269 265 269 284 306 298 303 303 281 238 207 196 196 183 202 214 215 204 199 203 203 199 194 203 203
157 150 105 263 322 1 277 242 232 195 214 218 231 250 277 277 242 254 260 240 251 254 259 280 282 292 297 297 259 229 214 174 193 203 210 205 201 204 207 205 196 203 203 193
150 136 141 248 332 233 249 287 202 208 248 230 265 261 265 256 267 242 229 230 238 234 252 262 265 290 297 304 288 248 193 194 203 216 219 210 205 213 205 197 207 208 193 200
161 128 129 211 220 303 309 268 172 175 257 211 227 249 260 273 284 280 222 205 214 210 230 234 239 253 284 302 307 189 194 205 212 225 219 213 205 213 209 209 213 211 200 198
94 71 154 122 234 242 236 268 154 140 286 242 193 247 238 118 359 269 226 181 209 226 226 231 256 282 303 318 145 166 208 206 227 228 230 206 201 211 213 219 215 205 204 216
129 192 209 219 248 281 249 178 160 117 252 160 181 223 161 191 206 249 173 201 198 206 208 216 222 255 274 290 197 243 227 238 234 221 220 214 204 213 221 221 203 203 205 208
168 168 193 145 202 273 164 78 185 213 237 209 215 206 205 229 233 222 225 230 221 219 211 213 231 268 283 262 224 274 270 270 257 237 234 224 211 213 208 201 210 212 204 206
242 190 184 185 205 253 217 214 225 135 235 232 208 231 222 225 224 214 230 226 227 227 228 226 233 274 278 281 224 275 267 295 264 232 234 236 235 209 199 194 203 199 203 213
249 156 224 108 192 235 218 251 249 222 228 233 227 240 187 229 240 233 229 233 228 227 230 217 228 258 276 229 246 234 285 289 269 262 252 237 220 237 215 204 197 198 199 211
186 148 195 257 285 291 250 231 242 251 231 243 249 220 224 216 245 226 232 229 223 225 221 207 222 254 276 303 288 279 288 285 280 272 265 241 225 220 215 219 209 210 211 202
179 195 212 248 199 229 257 242 229 236 238 237 239 251 238 210 234 223 232 223 214 220 197 207 229 248 290 305 306 318 303 285 273 284 279 257 244 231 221 216 235 233 230 220